When you browse on this site, cookies collect data to enhance your experience and personalize the content and advertising you see.
Visit our Privacy Policy to learn more. By continuing to use the site, you agree to this use of cookies and data.
  • In Denmark
  • List of Countries
  • For 7 days
  • Water Temperature
  • Satellite Maps
  • Weather Map
  • Weather Widgets
  • user-avatar
    Login

    Hourly Weather Edinburgh

    Today, 19 April, Friday

    Time Temperature Precipitation Wind Pressure Humidity
    00:00 +8°C° 0 mm 2 mps 770 mmHg 88%
    01:00 +8°C° 0 mm 2 mps 770 mmHg 88%
    02:00 +7°C° 0 mm 2 mps 770 mmHg 88%
    03:00 +7°C° 0 mm 2 mps 770 mmHg 89%
    04:00 +7°C° 0 mm 2 mps 770 mmHg 88%
    05:00 +8°C° 0 mm 2 mps 770 mmHg 86%
    06:00 +8°C° 0 mm 2 mps 770 mmHg 85%
    07:00 +10°C° 0 mm 2 mps 770 mmHg 79%
    08:00 +13°C° 0 mm 2 mps 770 mmHg 72%
    09:00 +15°C° 0 mm 2 mps 770 mmHg 66%
    10:00 +16°C° 0 mm 2 mps 770 mmHg 59%
    11:00 +18°C° 0 mm 2 mps 771 mmHg 53%
    12:00 +20°C° 0 mm 2 mps 771 mmHg 46%
    13:00 +20°C° 0 mm 3 mps 770 mmHg 46%
    14:00 +21°C° 0 mm 3 mps 770 mmHg 46%
    15:00 +21°C° 0 mm 4 mps 770 mmHg 46%
    16:00 +20°C° 0 mm 3 mps 770 mmHg 52%
    17:00 +19°C° 0 mm 3 mps 770 mmHg 57%
    18:00 +18°C° 0 mm 2 mps 770 mmHg 63%
    19:00 +16°C° 0 mm 2 mps 770 mmHg 68%
    20:00 +15°C° 0 mm 2 mps 770 mmHg 73%
    21:00 +13°C° 0 mm 2 mps 771 mmHg 78%
    22:00 +13°C° 0 mm 1 mps 771 mmHg 78%
    23:00 +12°C° 0 mm 1 mps 771 mmHg 78%

    Tomorrow, 20 April, Saturday

    Time Temperature Precipitation Wind Pressure Humidity
    00:00 +12°C° 0 mm 1 mps 771 mmHg 78%
    01:00 +11°C° 0 mm 1 mps 770 mmHg 79%
    02:00 +11°C° 0 mm 1 mps 770 mmHg 79%
    03:00 +11°C° 0 mm 1 mps 770 mmHg 80%
    04:00 +11°C° 0 mm 1 mps 770 mmHg 81%
    05:00 +11°C° 0 mm 1 mps 770 mmHg 82%
    06:00 +12°C° 0 mm 1 mps 770 mmHg 83%
    07:00 +13°C° 0 mm 2 mps 770 mmHg 79%
    08:00 +15°C° 0 mm 2 mps 770 mmHg 74%
    09:00 +16°C° 0 mm 3 mps 770 mmHg 70%
    10:00 +17°C° 0 mm 3 mps 770 mmHg 69%
    11:00 +18°C° 0 mm 3 mps 770 mmHg 69%
    12:00 +19°C° 0 mm 3 mps 770 mmHg 68%
    13:00 +18°C° 0 mm 3 mps 770 mmHg 70%
    14:00 +18°C° 0 mm 3 mps 770 mmHg 73%
    15:00 +17°C° 0 mm 3 mps 770 mmHg 76%
    16:00 +17°C° 0 mm 3 mps 770 mmHg 78%
    17:00 +16°C° 0 mm 2 mps 770 mmHg 80%
    18:00 +15°C° 0 mm 2 mps 770 mmHg 83%
    19:00 +14°C° 0 mm 2 mps 769 mmHg 86%
    20:00 +13°C° 0 mm 1 mps 769 mmHg 90%
    21:00 +12°C° 0 mm 1 mps 769 mmHg 94%
    22:00 +12°C° 0 mm 1 mps 769 mmHg 93%
    23:00 +11°C° 0 mm 0 mps 768 mmHg 92%

    Day after tomorrow, 21 April, Sunday

    Time Temperature Precipitation Wind Pressure Humidity
    00:00 +11°C° 0 mm 0 mps 768 mmHg 92%
    01:00 +11°C° 0 mm 0 mps 767 mmHg 93%
    02:00 +11°C° 0 mm 1 mps 767 mmHg 93%
    03:00 +11°C° 0 mm 1 mps 766 mmHg 94%
    04:00 +11°C° 0 mm 1 mps 765 mmHg 95%
    05:00 +11°C° 0 mm 1 mps 765 mmHg 95%
    06:00 +11°C° 0 mm 1 mps 764 mmHg 96%
    07:00 +13°C° 0.1 mm 1 mps 764 mmHg 90%
    08:00 +14°C° 0.1 mm 2 mps 763 mmHg 84%
    09:00 +15°C° 0.1 mm 2 mps 762 mmHg 78%
    10:00 +17°C° 0 mm 3 mps 762 mmHg 71%
    11:00 +18°C° 0 mm 4 mps 761 mmHg 65%
    12:00 +19°C° 0 mm 5 mps 760 mmHg 59%
    13:00 +19°C° 0 mm 5 mps 760 mmHg 58%
    14:00 +19°C° 0 mm 6 mps 759 mmHg 57%
    15:00 +19°C° 0 mm 6 mps 758 mmHg 56%
    16:00 +19°C° 0 mm 5 mps 758 mmHg 59%
    17:00 +17°C° 0 mm 5 mps 757 mmHg 62%
    18:00 +17°C° 0 mm 4 mps 757 mmHg 66%
    19:00 +15°C° 0 mm 4 mps 756 mmHg 70%
    20:00 +14°C° 0 mm 4 mps 756 mmHg 74%
    21:00 +12°C° 0 mm 4 mps 756 mmHg 77%
    22:00 +12°C° 0 mm 4 mps 756 mmHg 79%
    23:00 +12°C° 0 mm 4 mps 755 mmHg 81%

    22 April, Monday

    Time Temperature Precipitation Wind Pressure Humidity
    00:00 +11°C° 0 mm 4 mps 755 mmHg 83%
    01:00 +11°C° 0 mm 3 mps 754 mmHg 84%
    02:00 +11°C° 0 mm 3 mps 754 mmHg 85%
    03:00 +10°C° 0 mm 3 mps 754 mmHg 86%
    04:00 +10°C° 0 mm 3 mps 753 mmHg 87%
    05:00 +10°C° 0 mm 3 mps 753 mmHg 89%
    06:00 +10°C° 0 mm 2 mps 753 mmHg 91%
    07:00 +12°C° 0 mm 3 mps 753 mmHg 82%
    08:00 +14°C° 0 mm 4 mps 753 mmHg 73%
    09:00 +16°C° 0 mm 5 mps 753 mmHg 64%
    10:00 +17°C° 0 mm 5 mps 752 mmHg 60%
    11:00 +19°C° 0 mm 5 mps 752 mmHg 56%
    12:00 +20°C° 0 mm 5 mps 752 mmHg 53%
    13:00 +20°C° 0 mm 5 mps 752 mmHg 51%
    14:00 +20°C° 0 mm 5 mps 751 mmHg 49%
    15:00 +21°C° 0 mm 5 mps 751 mmHg 48%
    16:00 +20°C° 0 mm 4 mps 751 mmHg 52%
    17:00 +19°C° 0 mm 4 mps 751 mmHg 57%
    18:00 +19°C° 0 mm 3 mps 751 mmHg 61%
    19:00 +17°C° 0 mm 3 mps 751 mmHg 65%
    20:00 +16°C° 0 mm 3 mps 751 mmHg 68%
    21:00 +14°C° 0 mm 4 mps 751 mmHg 71%
    22:00 +13°C° 0 mm 4 mps 751 mmHg 71%
    23:00 +12°C° 0 mm 3 mps 751 mmHg 70%

    23 April, Tuesday

    Time Temperature Precipitation Wind Pressure Humidity
    00:00 +10°C° 0 mm 3 mps 751 mmHg 70%
    01:00 +10°C° 0 mm 3 mps 751 mmHg 74%
    02:00 +10°C° 0 mm 3 mps 751 mmHg 78%
    03:00 +9°C° 0 mm 3 mps 750 mmHg 81%
    04:00 +9°C° 0 mm 3 mps 750 mmHg 84%
    05:00 +9°C° 0 mm 3 mps 750 mmHg 86%
    06:00 +8°C° 0 mm 4 mps 750 mmHg 88%
    07:00 +10°C° 0 mm 4 mps 750 mmHg 83%
    08:00 +12°C° 0 mm 4 mps 750 mmHg 78%
    09:00 +13°C° 0 mm 5 mps 750 mmHg 74%
    10:00 +15°C° 0 mm 5 mps 750 mmHg 67%
    11:00 +16°C° 0 mm 5 mps 749 mmHg 61%
    12:00 +19°C° 0 mm 6 mps 749 mmHg 55%
    13:00 +19°C° 0 mm 6 mps 749 mmHg 54%
    14:00 +19°C° 0 mm 6 mps 748 mmHg 53%
    15:00 +19°C° 0 mm 6 mps 748 mmHg 52%
    16:00 +17°C° 0 mm 6 mps 748 mmHg 55%
    17:00 +15°C° 0 mm 5 mps 748 mmHg 58%
    18:00 +14°C° 0 mm 5 mps 747 mmHg 60%
    19:00 +13°C° 0 mm 5 mps 748 mmHg 64%
    20:00 +10°C° 0 mm 5 mps 748 mmHg 69%
    21:00 +10°C° 0 mm 4 mps 748 mmHg 73%
    22:00 +10°C° 0 mm 4 mps 748 mmHg 75%
    23:00 +8°C° 0 mm 4 mps 748 mmHg 78%

    24 April, Wednesday

    Time Temperature Precipitation Wind Pressure Humidity
    00:00 +8°C° 0 mm 4 mps 747 mmHg 81%
    01:00 +8°C° 0 mm 4 mps 747 mmHg 82%
    02:00 +8°C° 0 mm 4 mps 747 mmHg 83%
    03:00 +7°C° 0 mm 4 mps 747 mmHg 84%
    04:00 +7°C° 0 mm 4 mps 747 mmHg 85%
    05:00 +7°C° 0 mm 4 mps 747 mmHg 85%
    06:00 +7°C° 0 mm 4 mps 747 mmHg 86%
    07:00 +8°C° 0 mm 4 mps 747 mmHg 83%
    08:00 +10°C° 0 mm 4 mps 747 mmHg 81%
    09:00 +11°C° 0 mm 4 mps 747 mmHg 78%
    10:00 +11°C° 0.4 mm 4 mps 747 mmHg 80%
    11:00 +11°C° 0.4 mm 4 mps 747 mmHg 83%
    12:00 +11°C° 0.4 mm 3 mps 746 mmHg 85%
    13:00 +11°C° 1.9 mm 3 mps 746 mmHg 88%
    14:00 +12°C° 1.9 mm 2 mps 746 mmHg 91%
    15:00 +11°C° 1.9 mm 1 mps 746 mmHg 95%
    16:00 +11°C° 1.2 mm 1 mps 746 mmHg 94%
    17:00 +11°C° 1.2 mm 1 mps 746 mmHg 93%
    18:00 +11°C° 1.2 mm 1 mps 746 mmHg 91%
    19:00 +11°C° 0 mm 1 mps 746 mmHg 92%
    20:00 +10°C° 0 mm 1 mps 747 mmHg 93%
    21:00 +8°C° 0 mm 2 mps 747 mmHg 94%
    22:00 +8°C° 0 mm 2 mps 747 mmHg 94%
    23:00 +8°C° 0 mm 2 mps 748 mmHg 93%
    Show more